Weather History for Lake Charles Regional, LA

Change the Weather History Date:

Friday, May 10, 2013

  Actual Average Record
Temperature  
Mean Temperature 71 °F 74 °F  
Max Temperature 75 °F 83 °F 93 °F (2002)
Min Temperature 66 °F 65 °F 48 °F (1923)
Degree Days  
Heating Degree Days 0 0  
Month to date heating degree days 24 0  
Since 1 July heating degree days 1267 1489  
Cooling Degree Days 6 9  
Month to date cooling degree days 26 82  
Year to date cooling degree days 204 290  
Growing Degree Days 20 (Base 50)    
Moisture  
Dew Point 64 °F    
Average Humidity 83    
Maximum Humidity 93    
Minimum Humidity 73    
Precipitation  
Precipitation 4.88 in 0.15 in 4.88 in (2013)
Month to date precipitation 4.94 1.48  
Year to date precipitation 28.60 17.16  
Snow  
Snow 0.00 in 0.00 in 0.00 in ()
Month to date snowfall 0.0 0.0  
Since 1 July snowfall 0.0 0.1  
Snow Depth 0.00 in    
Sea Level Pressure  
Sea Level Pressure 29.96 in    
Wind  
Wind Speed 9 mph (East)    
Max Wind Speed 43 mph    
Max Gust Speed 52 mph    
Visibility 6 miles    
Events Fog , Rain , Thunderstorm    
T = Trace of Precipitation, MM = Missing Value Source: NWS Daily Summary

Daily Weather History Graph

Daily Weather History Graph

Search for Another Location

Airport:

Trip Planner

Search our weather history database for the weather conditions in past years. The results will help you decide how hot, cold, wet, or windy it might be!

Date:

Astronomy

May. 10, 2013 Rise Set
Actual Time 6:22 AM CDT 7:56 PM CDT
Civil Twilight 5:56 AM CDT 8:22 PM CDT
Nautical Twilight 5:25 AM CDT 8:53 PM CDT
Astronomical Twilight 4:52 AM CDT 9:26 PM CDT
Moon 6:47 AM CDT (5/10) 8:44 PM CDT (5/10)
Length of Visible Light 14h 26m
Length of Day
13h 34m
New Moon, 0% of the Moon is Illuminated
May 10
New Moon
May 17
First Quarter
May 24
Full
May 31
Last Quarter
Jun 8
New

Hourly Weather History & Observations

Time (CDT) Temp. Dew Point Humidity Pressure Visibility Wind Dir Wind Speed Gust Speed Precip Events Conditions
12:17 AM 75.2 °F 69.8 °F 83% 29.87 in 10.0 mi South 18.4 mph 31.1 mph N/A Thunderstorm Thunderstorm
12:53 AM 75.2 °F 69.8 °F 83% 29.93 in 7.0 mi Variable 6.9 mph 17.3 mph N/A Rain , Thunderstorm Light Thunderstorms and Rain
12:59 AM 73.4 °F 71.6 °F 94% 29.95 in 1.8 mi Variable 4.6 mph - 0.08 in Rain , Thunderstorm Heavy Thunderstorms and Rain
1:14 AM 73.4 °F 69.8 °F 88% 29.90 in 2.0 mi South 10.4 mph - 0.48 in Rain , Thunderstorm Heavy Thunderstorms and Rain
1:25 AM 73.4 °F 69.8 °F 88% 29.91 in 1.8 mi South 8.1 mph 20.7 mph 0.78 in Rain , Thunderstorm Heavy Thunderstorms and Rain
1:36 AM 69.8 °F 64.4 °F 83% 29.91 in 0.8 mi NNW 36.8 mph 49.5 mph N/A Rain , Thunderstorm Heavy Thunderstorms and Rain
1:40 AM 66.2 °F 64.4 °F 94% 29.87 in 0.2 mi North 39.1 mph 51.8 mph 1.11 in Fog , Rain , Thunderstorm Heavy Thunderstorms and Rain
1:45 AM 66.2 °F 64.4 °F 94% 29.92 in 0.2 mi North 29.9 mph 51.8 mph 1.48 in Fog , Rain , Thunderstorm Heavy Thunderstorms and Rain
1:53 AM 66.0 °F 64.0 °F 93% 29.96 in 0.5 mi ENE 19.6 mph 36.8 mph 2.54 in Fog , Rain , Thunderstorm Heavy Thunderstorms and Rain
1:57 AM 66.2 °F 64.4 °F 94% 29.92 in 0.8 mi ENE 15.0 mph - 0.28 in Rain , Thunderstorm Heavy Thunderstorms and Rain
2:01 AM 66.2 °F 64.4 °F 94% 29.93 in 1.2 mi ENE 10.4 mph - 0.40 in Rain , Thunderstorm Heavy Thunderstorms and Rain
2:05 AM 66.2 °F 64.4 °F 94% 29.93 in 2.0 mi NE 5.8 mph - 0.47 in Rain , Thunderstorm Heavy Thunderstorms and Rain
2:23 AM 66.2 °F - N/A% 29.92 in 2.5 mi ESE 9.2 mph - 0.82 in Rain , Thunderstorm Heavy Thunderstorms and Rain
2:33 AM 66.2 °F - N/A% 29.90 in 3.0 mi East 10.4 mph - 0.97 in Rain , Thunderstorm Heavy Thunderstorms and Rain
2:50 AM 66.2 °F - N/A% 29.94 in 7.0 mi East 4.6 mph - 1.03 in Rain , Thunderstorm Thunderstorms and Rain
2:53 AM 66.0 °F - N/A% 29.96 in 7.0 mi ENE 5.8 mph - 1.04 in Rain , Thunderstorm Heavy Thunderstorms and Rain
3:53 AM 66.0 °F - N/A% 30.00 in 5.0 mi East 10.4 mph - 0.24 in Rain Rain
4:02 AM 66.2 °F - N/A% 29.98 in 5.0 mi East 10.4 mph - 0.02 in Rain , Thunderstorm Heavy Rain
4:50 AM 66.2 °F - N/A% 29.97 in 5.0 mi SE 20.7 mph - 0.29 in Rain , Thunderstorm Rain
4:51 AM 66.9 °F - N/A% 29.99 in 5.0 mi SE 21.9 mph - 0.29 in Rain , Thunderstorm Rain
5:34 AM 68.0 °F - N/A% 29.93 in 7.0 mi East 17.3 mph 24.2 mph 0.13 in Rain Light Rain
5:53 AM 66.9 °F - N/A% 29.94 in 10.0 mi SE 18.4 mph 24.2 mph 0.13 in Rain , Thunderstorm Light Rain
6:03 AM 68.0 °F - N/A% 29.92 in 10.0 mi SE 19.6 mph - 0.00 in Rain , Thunderstorm Light Rain
6:24 AM 68.0 °F - N/A% 29.93 in 10.0 mi SSE 19.6 mph 28.8 mph 0.00 in   Scattered Clouds
6:53 AM 68.0 °F - N/A% 29.97 in 10.0 mi SSE 18.4 mph 27.6 mph 0.00 in   Mostly Cloudy
7:53 AM 69.1 °F 62.1 °F 78% 29.96 in 10.0 mi SSE 13.8 mph 23.0 mph N/A   Scattered Clouds
8:04 AM 69.8 °F 60.8 °F 73% 29.95 in 10.0 mi South 12.7 mph 20.7 mph N/A Thunderstorm Partly Cloudy
8:39 AM 69.8 °F 60.8 °F 73% 29.94 in 10.0 mi South 10.4 mph - N/A Thunderstorm Clear
8:53 AM 69.1 °F 61.0 °F 75% 29.95 in 10.0 mi South 6.9 mph - N/A Thunderstorm Clear
9:00 AM 69.8 °F 60.8 °F 73% 29.93 in 10.0 mi SSE 8.1 mph - N/A   Clear
9:53 AM 73.0 °F 60.1 °F 64% 29.98 in 10.0 mi South 5.8 mph - N/A   Mostly Cloudy
10:53 AM 73.9 °F 64.0 °F 71% 29.97 in 10.0 mi WNW 3.5 mph - 0.00 in Rain , Thunderstorm Light Rain
11:23 AM 73.4 °F 62.6 °F 69% 29.97 in 10.0 mi Calm Calm - N/A Thunderstorm Thunderstorm
11:53 AM 71.6 °F 64.4 °F 78% 30.00 in 8.0 mi North 6.9 mph - N/A Rain , Thunderstorm Thunderstorms and Rain
12:53 PM 69.1 °F 66.0 °F 90% 30.02 in 5.0 mi NNE 6.9 mph - 0.09 in Rain , Thunderstorm Light Rain
1:14 PM 69.8 °F 66.2 °F 88% 30.05 in 1.8 mi Calm Calm - 0.03 in Rain , Thunderstorm Light Thunderstorms and Rain
1:30 PM 68.0 °F 66.2 °F 94% 30.05 in 2.5 mi North 6.9 mph - 0.20 in Rain , Thunderstorm Thunderstorms and Rain
1:40 PM 69.8 °F 66.2 °F 88% 30.05 in 2.0 mi NNW 9.2 mph - 0.23 in Rain , Thunderstorm Heavy Rain
1:49 PM 68.0 °F 64.4 °F 88% 30.06 in 1.8 mi NNW 8.1 mph - 0.28 in Rain , Thunderstorm Heavy Rain
1:53 PM 68.0 °F 64.9 °F 90% 30.08 in 2.0 mi NNW 9.2 mph - 0.34 in Rain , Thunderstorm Rain
2:11 PM 68.0 °F 66.2 °F 94% 30.07 in 1.5 mi WNW 6.9 mph - 0.09 in Rain , Thunderstorm Heavy Rain
2:22 PM 68.0 °F 64.4 °F 88% 30.07 in 2.5 mi West 5.8 mph - 0.14 in Rain , Thunderstorm Rain
2:53 PM 66.9 °F 64.0 °F 90% 30.06 in 2.0 mi SE 5.8 mph - 0.24 in Rain , Thunderstorm Thunderstorms and Rain
3:06 PM 66.2 °F 64.4 °F 94% 29.95 in 6.0 mi East 15.0 mph - 0.03 in Rain Light Rain
3:53 PM 70.0 °F 64.0 °F 81% 29.88 in 10.0 mi East 10.4 mph - 0.04 in   Clear
4:53 PM 73.9 °F 64.0 °F 71% 29.89 in 10.0 mi SE 13.8 mph - N/A   Clear
5:53 PM 73.9 °F 64.0 °F 71% 29.92 in 10.0 mi SE 8.1 mph - N/A   Clear
6:53 PM 73.0 °F 64.0 °F 73% 29.94 in 10.0 mi ESE 9.2 mph - N/A   Clear
7:53 PM 70.0 °F 64.9 °F 84% 29.97 in 10.0 mi SE 5.8 mph - N/A   Partly Cloudy
8:33 PM 69.8 °F 64.4 °F 83% 29.97 in 10.0 mi East 4.6 mph - N/A   Mostly Cloudy
8:53 PM 70.0 °F 64.9 °F 84% 30.00 in 10.0 mi ENE 5.8 mph - N/A   Overcast
9:53 PM 70.0 °F 66.0 °F 87% 30.03 in 10.0 mi NE 4.6 mph - N/A   Overcast
10:43 PM 69.8 °F 66.2 °F 88% 30.01 in 10.0 mi NE 5.8 mph - N/A   Mostly Cloudy
10:53 PM 69.1 °F 66.0 °F 90% 30.03 in 10.0 mi ENE 5.8 mph - N/A   Overcast
11:53 PM 69.1 °F 64.9 °F 87% 30.01 in 10.0 mi Calm Calm - N/A   Overcast